Regional Weather Roundup
Issued by NWS

Home | Current Version | Previous Version | Text Only | Print | Product List | Glossary On
Versions: 1 2 3 4 5 6 7 8 9 10 11 12 13 14 15 16 17 18 19 20 21 22 23 24 25 26 27 28 29 30 31 32 33 34 35 36 37 38 39 40 41 42 43 44 45 46 47 48 49 50
000
ASUS46 KSTO 300815
RWRCA

NORTHERN AND CENTRAL CA REGIONAL WEATHER ROUNDUP
NATIONAL WEATHER SERVICE SACRAMENTO CA
100 AM PDT TUE MAY 30 2017

NOTE: FAIR INDICATES FEW OR NO CLOUDS BELOW 12,000 FEET WITH NO
SIGNIFICANT WEATHER AND/OR OBSTRUCTIONS TO VISIBILITY.

CAZ001-003-300900-
NORTHWEST AREA

CITY           SKY/WX    TMP DP  RH WIND       PRES   REMARKS
CRESCENT CITY  CLOUDY    51  51 100 N8        30.05R FOG
UKIAH          CLEAR     54  49  83 CALM      29.93F
$$

CAZ006-505>513-300900-
BAY AREA

CITY           SKY/WX    TMP DP  RH WIND       PRES   REMARKS
SANTA ROSA     CLEAR     49  48  97 SE3       29.91S
SAN RAFAEL     N/A       52  MM  MM MISG
NAPA           MOCLDY    55  51  86 NW3       29.92S
CONCORD        CLEAR     55  51  86 S20G25    29.91S
OAKLAND CITY   N/A      MM  MM  MM MISG
OAKLAND        CLOUDY    56  52  86 N5        29.96S
SAN FRAN CITY  N/A       52  MM  93 MISG
SAN FRAN ARPT  CLOUDY    53  48  83 W14       29.96S
HAYWARD        CLOUDY    56  48  74 W10       29.96S
REDWOOD CITY   N/A       51  MM  88 MISG
MOFFETT ARPT   CLEAR     54  50  86 CALM      29.96F
SAN JOSE ARPT  MOCLDY    54  51  90 NW5       29.96S
$$
CAZ034-037-514>518-300900-
CENTRAL COAST

CITY           SKY/WX    TMP DP  RH WIND       PRES   REMARKS
WATSONVILLE    CLOUDY    54  53  97 E3        29.96F
SALINAS        CLOUDY    55  51  86 SW15      29.96F
MONTEREY       CLOUDY    53  51  93 SW7       29.97F
SAN LUIS OBISP CLOUDY    53  50  89 W3        29.92F
SANTA MARIA    CLOUDY    53  52  96 W6        29.93F FOG
$$
CAZ015-016-300900-
NORTHERN SACRAMENTO VALLEY

CITY           SKY/WX    TMP DP  RH WIND       PRES   REMARKS
REDDING        CLEAR     71  60  68 NW5       29.83S
RED BLUFF      CLEAR     72  62  71 SE5       29.83F
OROVILLE       CLEAR     70  58  65 SE9       29.85S
$$
CAZ016>018-300900-
SOUTHERN SACRAMENTO VALLEY

CITY           SKY/WX    TMP DP  RH WIND       PRES   REMARKS
AUBURN         CLEAR     70  59  68 E3        29.89F
BEALE AFB      CLEAR     63  55  74 S10       29.82F
LINCOLN        FAIR      61  50  67 S8        29.85S
MARYSVILLE     CLEAR     64  54  69 SE9       29.84S
SAC INTL ARPT  PTCLDY    58  53  84 SE13      29.84S
MATHER AIRPORT NOT AVBL
DOWNTOWN SAC   N/A       58  MM  MM MISG
SAC EXEC ARPT  CLEAR     57  53  86 S7        29.86S
VACAVILLE      CLEAR     60  52  74 SW10      29.83S
$$
CAZ019>021-300900-
SAN JOAQUIN VALLEY

CITY           SKY/WX    TMP DP  RH WIND       PRES   REMARKS
STOCKTON       CLEAR     58  50  75 W10       29.86F
MODESTO        PTCLDY    62  49  62 N9        29.85F
MERCED         PTCLDY    62  47  57 W5        29.84S
LEMOORE        PTCLDY    67  47  48 NW8       29.84F
FRESNO         MOCLDY    70  56  61 NW9       29.84F
HANFORD        MOCLDY    70  55  59 NW12      29.84F
PORTERVILLE      N/A     72  58  61 W5        29.85F
BAKERSFIELD    MOCLDY    75  55  49 NW6       29.85R
$$
CAZ011-012-071-300900-
NORTHERN MOUNTAINS

CITY           SKY/WX    TMP DP  RH WIND       PRES   REMARKS
YREKA          CLEAR     58  50  75 VRB3      29.93F
MOUNT SHASTA   CLEAR     54  41  61 NE3       29.98F
ALTURAS        PTCLDY    51  40  65 CALM      30.04S
$$
CAZ011-012-071-300900-
SIERRA NEVADA MTNS

CITY           SKY/WX    TMP DP  RH WIND       PRES   REMARKS
BLUE CANYON    CLEAR     60  43  53 NE3       30.09F
TRUCKEE        CLEAR     45  36  70 CALM      30.14S
TAHOE VLY ARPT PTCLDY    46  35  65 CALM      30.15S
MAMMOTH LAKES  FAIR      50  30  47 CALM      30.19S
$$



USA.gov is the U.S. government's official web portal to all federal, state and local government web resources and services.